Meteo pe oră la Recife

Astăzi, 30 Iulie, Vineri

Timp Temperatura Precipitaţii Vânt Presiune Umiditate
00:00 +24°C° 0 mm 2 m/s 760 mmHg 87%
01:00 +24°C° 0 mm 2 m/s 760 mmHg 88%
02:00 +24°C° 0 mm 2 m/s 760 mmHg 89%
03:00 +24°C° 0 mm 2 m/s 760 mmHg 90%
04:00 +23°C° 0 mm 2 m/s 760 mmHg 91%
05:00 +23°C° 0 mm 2 m/s 760 mmHg 91%
06:00 +23°C° 0 mm 2 m/s 760 mmHg 91%
07:00 +22°C° 0 mm 3 m/s 760 mmHg 91%
08:00 +25°C° 0 mm 3 m/s 761 mmHg 83%
09:00 +27°C° 0 mm 3 m/s 761 mmHg 75%
10:00 +28°C° 0 mm 4 m/s 762 mmHg 67%
11:00 +29°C° 0.1 mm 4 m/s 761 mmHg 65%
12:00 +29°C° 0.1 mm 4 m/s 761 mmHg 63%
13:00 +30°C° 0.1 mm 4 m/s 761 mmHg 61%
14:00 +29°C° 0.1 mm 4 m/s 760 mmHg 63%
15:00 +29°C° 0.1 mm 4 m/s 760 mmHg 65%
16:00 +28°C° 0.1 mm 4 m/s 760 mmHg 67%
17:00 +27°C° 0.1 mm 4 m/s 760 mmHg 73%
18:00 +26°C° 0.1 mm 3 m/s 760 mmHg 79%
19:00 +25°C° 0.1 mm 3 m/s 761 mmHg 84%
20:00 +25°C° 0.2 mm 3 m/s 761 mmHg 86%
21:00 +25°C° 0.2 mm 3 m/s 762 mmHg 88%
22:00 +24°C° 0.2 mm 3 m/s 762 mmHg 90%
23:00 +24°C° 0.4 mm 3 m/s 762 mmHg 91%

Mâine, 31 Iulie, Sâmbătă

Timp Temperatura Precipitaţii Vânt Presiune Umiditate
00:00 +23°C° 0.4 mm 4 m/s 762 mmHg 91%
01:00 +23°C° 0.4 mm 4 m/s 762 mmHg 91%
02:00 +23°C° 0.7 mm 4 m/s 761 mmHg 92%
03:00 +23°C° 0.7 mm 4 m/s 761 mmHg 92%
04:00 +22°C° 0.7 mm 4 m/s 761 mmHg 93%
05:00 +22°C° 0.9 mm 4 m/s 761 mmHg 93%
06:00 +22°C° 0.9 mm 4 m/s 761 mmHg 93%
07:00 +22°C° 0.9 mm 4 m/s 762 mmHg 93%
08:00 +25°C° 0.9 mm 5 m/s 762 mmHg 89%
09:00 +26°C° 0.9 mm 5 m/s 763 mmHg 85%
10:00 +27°C° 0.9 mm 6 m/s 763 mmHg 81%
11:00 +28°C° 0.6 mm 6 m/s 763 mmHg 78%
12:00 +28°C° 0.6 mm 6 m/s 762 mmHg 75%
13:00 +29°C° 0.6 mm 6 m/s 762 mmHg 72%
14:00 +28°C° 1 mm 6 m/s 762 mmHg 73%
15:00 +28°C° 1 mm 6 m/s 761 mmHg 73%
16:00 +28°C° 1 mm 6 m/s 761 mmHg 74%
17:00 +27°C° 0.9 mm 6 m/s 761 mmHg 78%
18:00 +26°C° 0.9 mm 6 m/s 762 mmHg 83%
19:00 +24°C° 0.9 mm 6 m/s 762 mmHg 87%
20:00 +24°C° 0.4 mm 6 m/s 762 mmHg 88%
21:00 +25°C° 0.4 mm 5 m/s 763 mmHg 89%
22:00 +25°C° 0.4 mm 5 m/s 763 mmHg 90%
23:00 +23°C° 0.3 mm 5 m/s 763 mmHg 90%

Poimâine, 1 August, Duminică

Timp Temperatura Precipitaţii Vânt Presiune Umiditate
00:00 +23°C° 0.3 mm 5 m/s 762 mmHg 91%
01:00 +23°C° 0.3 mm 5 m/s 762 mmHg 91%
02:00 +23°C° 0.3 mm 5 m/s 762 mmHg 91%
03:00 +23°C° 0.3 mm 5 m/s 762 mmHg 91%
04:00 +23°C° 0.3 mm 5 m/s 761 mmHg 92%
05:00 +23°C° 0.3 mm 5 m/s 762 mmHg 92%
06:00 +23°C° 0.3 mm 5 m/s 762 mmHg 92%
07:00 +23°C° 0.3 mm 5 m/s 762 mmHg 92%
08:00 +25°C° 0.6 mm 5 m/s 762 mmHg 88%
09:00 +26°C° 0.6 mm 5 m/s 763 mmHg 85%
10:00 +27°C° 0.6 mm 6 m/s 763 mmHg 82%
11:00 +27°C° 0.7 mm 6 m/s 763 mmHg 81%
12:00 +27°C° 0.7 mm 6 m/s 763 mmHg 79%
13:00 +28°C° 0.7 mm 6 m/s 762 mmHg 78%
14:00 +27°C° 0.8 mm 6 m/s 762 mmHg 80%
15:00 +27°C° 0.8 mm 6 m/s 761 mmHg 81%
16:00 +27°C° 0.8 mm 6 m/s 761 mmHg 83%
17:00 +26°C° 1 mm 6 m/s 761 mmHg 86%
18:00 +24°C° 1 mm 6 m/s 762 mmHg 88%
19:00 +23°C° 1 mm 5 m/s 762 mmHg 91%
20:00 +23°C° 1 mm 5 m/s 763 mmHg 92%
21:00 +23°C° 1 mm 5 m/s 763 mmHg 93%
22:00 +23°C° 1 mm 5 m/s 763 mmHg 94%
23:00 +23°C° 1 mm 5 m/s 763 mmHg 94%

2 August, Luni

Timp Temperatura Precipitaţii Vânt Presiune Umiditate
00:00 +23°C° 1 mm 5 m/s 762 mmHg 94%
01:00 +23°C° 1 mm 5 m/s 762 mmHg 94%
02:00 +23°C° 1 mm 5 m/s 762 mmHg 94%
03:00 +23°C° 1 mm 4 m/s 761 mmHg 94%
04:00 +22°C° 1 mm 4 m/s 761 mmHg 94%
05:00 +23°C° 0.9 mm 4 m/s 761 mmHg 93%
06:00 +23°C° 0.9 mm 4 m/s 762 mmHg 93%
07:00 +23°C° 0.9 mm 4 m/s 762 mmHg 93%
08:00 +25°C° 1.1 mm 4 m/s 762 mmHg 90%
09:00 +26°C° 1.1 mm 5 m/s 763 mmHg 86%
10:00 +27°C° 1.1 mm 5 m/s 763 mmHg 82%
11:00 +27°C° 0.5 mm 5 m/s 762 mmHg 79%
12:00 +28°C° 0.5 mm 5 m/s 762 mmHg 75%
13:00 +28°C° 0.5 mm 5 m/s 762 mmHg 71%
14:00 +28°C° 0.1 mm 5 m/s 761 mmHg 70%
15:00 +28°C° 0.1 mm 5 m/s 761 mmHg 70%
16:00 +28°C° 0.1 mm 5 m/s 760 mmHg 69%
17:00 +27°C° 0.1 mm 5 m/s 761 mmHg 75%
18:00 +26°C° 0.1 mm 5 m/s 761 mmHg 81%
19:00 +25°C° 0.1 mm 4 m/s 761 mmHg 87%
20:00 +25°C° 0.3 mm 4 m/s 762 mmHg 88%
21:00 +23°C° 0.3 mm 4 m/s 762 mmHg 90%
22:00 +23°C° 0.3 mm 4 m/s 762 mmHg 92%
23:00 +23°C° 0.6 mm 4 m/s 762 mmHg 92%

3 August, Marţi

Timp Temperatura Precipitaţii Vânt Presiune Umiditate
00:00 +23°C° 0.6 mm 4 m/s 762 mmHg 93%
01:00 +23°C° 0.6 mm 4 m/s 761 mmHg 93%
02:00 +22°C° 0.7 mm 4 m/s 761 mmHg 93%
03:00 +22°C° 0.7 mm 4 m/s 761 mmHg 93%
04:00 +22°C° 0.7 mm 4 m/s 760 mmHg 94%
05:00 +22°C° 0.6 mm 4 m/s 761 mmHg 94%
06:00 +22°C° 0.6 mm 4 m/s 761 mmHg 94%
07:00 +22°C° 0.6 mm 4 m/s 761 mmHg 94%
08:00 +23°C° 0.4 mm 4 m/s 761 mmHg 88%
09:00 +26°C° 0.4 mm 4 m/s 762 mmHg 83%
10:00 +27°C° 0.4 mm 4 m/s 762 mmHg 78%
11:00 +28°C° 0.3 mm 4 m/s 762 mmHg 74%
12:00 +28°C° 0.3 mm 4 m/s 761 mmHg 70%
13:00 +29°C° 0.3 mm 4 m/s 761 mmHg 67%
14:00 +29°C° 0.2 mm 4 m/s 760 mmHg 68%
15:00 +28°C° 0.2 mm 4 m/s 760 mmHg 69%
16:00 +28°C° 0.2 mm 4 m/s 760 mmHg 70%
17:00 +27°C° 0.1 mm 4 m/s 760 mmHg 76%
18:00 +26°C° 0.1 mm 3 m/s 760 mmHg 82%
19:00 +25°C° 0.1 mm 3 m/s 761 mmHg 87%
20:00 +25°C° 0.3 mm 3 m/s 761 mmHg 89%
21:00 +24°C° 0.3 mm 3 m/s 761 mmHg 90%
22:00 +24°C° 0.3 mm 3 m/s 762 mmHg 91%
23:00 +24°C° 0.3 mm 3 m/s 762 mmHg 91%

4 August, Miercuri

Timp Temperatura Precipitaţii Vânt Presiune Umiditate
00:00 +24°C° 0.3 mm 2 m/s 761 mmHg 92%
01:00 +23°C° 0.3 mm 2 m/s 761 mmHg 92%
02:00 +23°C° 0.2 mm 2 m/s 761 mmHg 92%
03:00 +23°C° 0.2 mm 2 m/s 761 mmHg 93%
04:00 +22°C° 0.2 mm 3 m/s 760 mmHg 93%
05:00 +23°C° 0.2 mm 2 m/s 761 mmHg 93%
06:00 +23°C° 0.2 mm 2 m/s 761 mmHg 93%
07:00 +23°C° 0.2 mm 2 m/s 761 mmHg 93%
08:00 +25°C° 0.2 mm 3 m/s 762 mmHg 86%
09:00 +26°C° 0.2 mm 3 m/s 762 mmHg 79%
10:00 +28°C° 0.2 mm 3 m/s 762 mmHg 72%
11:00 +28°C° 0.1 mm 4 m/s 762 mmHg 69%
12:00 +29°C° 0.1 mm 4 m/s 761 mmHg 65%
13:00 +30°C° 0.1 mm 4 m/s 761 mmHg 62%
14:00 +29°C° 0 mm 4 m/s 761 mmHg 63%
15:00 +29°C° 0 mm 4 m/s 760 mmHg 64%
16:00 +29°C° 0 mm 4 m/s 760 mmHg 65%
17:00 +28°C° 0 mm 4 m/s 761 mmHg 71%
18:00 +27°C° 0 mm 3 m/s 761 mmHg 78%
19:00 +25°C° 0 mm 3 m/s 761 mmHg 84%
20:00 +25°C° 0.2 mm 3 m/s 762 mmHg 86%
21:00 +25°C° 0.2 mm 3 m/s 762 mmHg 87%
22:00 +24°C° 0.2 mm 3 m/s 762 mmHg 89%
23:00 +24°C° 0.3 mm 3 m/s 762 mmHg 90%
Arată mai mult

Formular de consimțământ

Meteoprog și furnizorii noștri de servicii pot stoca și accesa date personale, precum cookies, identificatori de dispozitiv sau alte tehnologii similare pe dispozitivul dumneavoastră și procesa astfel de date pentru a personaliza conținutul și reclamele, dar și pentru a oferi caracteristici de social media și pentru a analiza traficul.

  • Stocarea și/sau accesarea informațiilor pe dispozitivul dumneavoastră

    Cookies, identificatori de dispozitiv sau alte informații pot fi stocate sau accesate pe dispozitiv în scopurile indicate mai sus.

  • Reclame și conținut personalizat, evaluarea reclamelor și a conținutului, informații despre audiențe și dezvoltarea produselor

    Reclamele și conținutul pot fi personalizate pe baza unui profil. Pot fi adăugate date suplimentare pentru a personaliza mai bine reclamele și conținutul. Performanța reclamelor și conținutului poate fi măsurată. Pot fi obținute informații despre utilizatorii care au văzut reclamele și conținutul. Aceste date pot fi utilizate pentru a dezvolta sau îmbunătăți experiența utilizatorilor, sistemele și software-ul.

Dând clic pe ‘Sunt de acord’, permiteți utilizarea cookie-urilor menționate, a identificatorilor de dispozitiv, balizelor web sau altor tehnologii similare. Setările pot fi modificate din browser-ul dispozitivului dumneavoastră.

În anumite scopuri, interesele legitime pot prima asupra consimțământului. Puteți citi mai multe informații în acest sens în Politica privind Confidențialitatea Datelor și Cookie.